Theta_e
307 311 312 312 313 312 311 310 309 309 308 307 306 306 306 306 307 307 307 307 304 304 306 307 308 308 309 309 309 310 310 310 309 309 310 310 309 310 309 310 310 310 310 310 311 310 310 310 309 309 308 306 306 305 305 304 304 304 304 304 304 304 304 304 305 306 309 312 314 315 316 316 316 317 317 317 318 318 317 317 317 317 317 317 316 317
307 311 313 313 313 311 309 308 308 307 307 306 306 307 307 307 307 307 307 307 304 304 307 308 309 309 310 310 310 311 311 311 311 310 311 310 310 310 310 311 310 310 311 310 310 310 310 310 309 308 307 306 306 306 304 303 303 303 303 303 303 303 303 303 304 305 308 311 313 314 315 315 316 316 316 316 316 316 316 316 317 316 316 316 316 316
311 313 314 312 310 308 307 306 306 306 306 307 307 307 308 308 308 308 308 305 303 305 308 309 309 310 311 311 312 313 313 313 312 311 311 311 312 311 311 311 311 311 311 310 310 309 309 310 310 309 307 306 306 306 305 304 303 303 303 303 303 303 303 303 304 305 307 309 311 313 314 315 315 315 314 315 315 315 315 315 316 316 316 316 316 316
316 315 313 310 307 307 307 305 305 306 306 307 307 308 309 309 309 309 309 306 305 306 307 308 309 311 313 314 314 314 314 313 313 312 311 311 311 311 311 311 311 310 310 310 310 309 309 308 309 308 308 307 306 305 305 305 304 303 303 302 302 303 303 303 304 304 306 309 310 311 312 312 313 313 313 313 314 314 314 314 315 315 316 316 316 316
317 312 307 307 307 307 309 307 306 308 310 309 308 309 309 309 309 309 309 308 308 308 307 308 312 315 316 317 317 316 314 313 312 312 311 311 310 310 310 310 310 309 309 309 309 309 309 308 307 307 308 309 309 307 306 306 305 304 304 303 302 302 303 303 303 304 306 308 309 310 310 310 311 312 312 312 313 313 313 313 314 314 314 315 315 315
316 311 307 309 308 308 310 310 309 310 313 313 310 309 309 309 309 309 309 309 311 313 309 309 315 319 317 317 318 316 314 313 313 312 311 311 310 309 309 309 309 309 308 308 308 308 309 308 307 308 309 310 311 310 308 306 306 305 305 304 303 302 303 303 303 304 305 307 308 309 310 311 312 312 312 312 312 312 312 313 313 313 313 313 314 314
313 309 309 312 311 310 311 311 311 310 312 315 312 309 308 309 309 309 310 310 313 315 312 310 314 318 317 317 317 315 315 314 312 311 310 310 310 309 309 309 309 309 309 309 308 307 307 307 307 307 309 311 313 312 307 305 304 304 303 303 302 302 303 303 304 304 305 307 309 310 311 312 313 313 313 312 312 312 312 313 313 313 312 313 313 313
311 308 308 310 311 312 313 313 311 309 312 314 311 308 309 309 310 310 310 311 312 312 312 310 311 314 316 317 316 315 315 314 311 311 311 311 311 310 309 309 309 309 309 309 309 308 307 307 307 308 310 312 312 310 307 305 304 303 302 302 301 302 303 303 304 305 305 308 309 310 311 312 313 314 314 313 313 313 312 313 313 312 312 312 312 313
311 310 310 310 310 312 313 313 310 308 312 312 308 308 309 309 310 311 311 312 311 311 314 312 309 313 316 317 316 316 314 313 312 312 312 312 313 312 310 309 309 309 308 308 308 309 308 308 308 309 312 311 310 309 307 306 306 305 304 303 302 302 303 303 304 304 306 308 309 310 311 312 312 313 313 312 312 312 311 312 312 312 312 311 311 312
310 308 309 310 311 312 311 309 308 309 310 309 307 308 309 310 310 311 311 312 311 312 316 313 309 313 318 318 317 316 314 313 313 312 312 313 312 312 312 310 310 309 309 309 308 308 309 309 309 309 310 309 308 309 308 307 307 307 307 305 303 303 303 304 304 305 306 307 308 310 311 311 312 311 311 310 310 310 310 311 311 311 311 311 311 311
309 306 306 309 311 311 309 307 305 308 309 308 309 310 311 311 309 309 309 310 312 315 315 310 308 311 316 318 317 315 313 312 313 312 312 312 312 313 313 311 309 308 308 309 308 309 309 308 308 308 309 310 308 309 309 308 307 307 307 306 305 304 304 305 305 305 306 307 308 309 310 311 311 310 309 310 310 310 310 311 311 311 311 311 310 311
310 309 308 309 311 309 308 308 306 306 307 308 310 311 313 314 311 310 310 309 315 319 313 307 306 308 313 316 315 314 313 312 312 312 311 311 311 311 312 311 309 307 307 307 308 310 310 310 310 309 310 311 309 309 309 309 308 307 307 307 306 306 306 306 306 306 307 307 307 308 309 309 310 309 309 310 310 310 310 311 311 310 310 310 310 310
311 312 311 310 309 308 309 311 309 307 307 308 310 311 315 318 317 317 315 312 316 317 310 306 306 308 312 313 313 313 312 311 311 311 310 310 310 310 310 310 309 308 307 307 308 311 314 315 314 312 312 312 311 311 309 309 309 308 307 307 308 307 307 307 307 307 307 307 307 307 308 308 309 309 309 310 310 309 309 310 310 310 310 310 310 310
311 312 311 310 309 308 310 311 311 311 309 310 311 312 316 319 319 320 317 314 315 313 307 304 307 311 313 313 313 312 311 311 309 309 309 308 309 309 309 307 307 307 307 307 307 310 313 314 315 315 314 312 312 311 309 308 308 308 307 307 308 308 308 307 307 307 307 307 307 307 308 308 308 308 308 309 310 309 309 310 310 309 310 310 310 309
312 313 311 310 310 308 309 310 311 312 311 311 311 311 315 317 318 319 317 316 315 312 308 305 309 314 314 313 313 311 310 309 308 307 306 306 307 306 306 306 306 306 306 307 306 307 308 308 309 313 314 311 309 309 308 308 307 307 307 306 307 308 308 308 308 308 308 308 308 308 308 308 308 308 308 309 309 309 309 309 309 309 309 309 309 309
310 311 310 306 305 305 308 309 309 310 312 310 308 310 313 313 314 315 312 311 310 310 310 309 311 314 312 312 312 310 310 308 308 307 305 305 305 306 307 307 307 307 306 307 307 306 305 305 306 309 309 308 307 306 306 307 307 307 307 307 306 307 307 308 308 308 308 308 308 308 308 308 308 308 308 308 308 308 308 308 308 308 309 309 309 309
309 310 307 304 304 304 305 305 306 309 311 309 309 311 310 307 310 313 310 306 305 309 312 310 310 312 310 311 311 310 310 309 308 307 306 306 307 308 310 309 307 308 307 307 307 305 305 304 306 307 306 306 306 305 305 306 307 308 308 307 307 306 306 307 308 308 308 308 309 309 308 308 308 308 308 308 308 308 308 308 308 308 308 309 308 309
310 310 308 306 308 304 299 302 305 306 307 309 310 310 307 305 308 310 311 310 309 313 313 308 309 310 309 311 313 311 310 310 309 308 308 308 308 310 310 309 308 308 308 308 307 306 306 307 307 306 305 304 304 304 305 305 306 307 308 308 307 307 307 307 307 307 307 308 308 309 309 309 309 309 308 308 308 308 308 308 308 308 308 308 308 308
309 310 309 304 306 305 300 304 309 306 305 307 308 305 306 310 310 308 311 313 312 313 312 308 307 308 308 310 311 311 310 310 309 309 309 308 307 308 308 308 308 309 310 311 309 308 309 310 310 308 305 303 302 303 304 304 305 306 307 307 307 307 307 307 307 307 306 307 307 307 308 308 308 309 309 309 308 308 308 308 308 308 308 308 308 308
308 309 310 304 303 305 305 308 311 310 306 305 306 304 304 308 310 309 309 309 309 311 311 310 309 309 310 310 309 309 309 309 309 309 309 308 307 306 306 307 309 311 312 311 310 310 310 310 310 308 304 303 302 303 304 304 305 305 305 306 307 307 307 307 306 306 306 307 307 307 307 307 308 308 308 309 308 308 308 308 308 308 309 309 308 308
308 308 310 307 303 306 309 310 311 312 310 307 308 308 306 306 306 307 307 305 307 309 309 309 311 311 311 309 308 309 309 308 308 308 309 309 308 306 305 306 308 310 311 311 311 311 311 312 311 306 303 301 302 303 304 304 304 305 305 305 306 306 307 307 306 306 306 306 306 306 306 307 307 307 308 308 308 308 308 308 309 309 309 309 308 308
308 307 309 309 307 309 310 306 305 308 310 309 310 310 310 309 307 309 310 305 303 306 307 307 310 312 311 309 309 308 307 307 306 307 309 309 308 307 306 306 307 308 309 310 311 310 311 314 315 310 304 302 302 304 304 305 305 305 305 305 305 305 306 306 306 306 306 306 306 306 306 306 306 306 307 307 308 308 308 309 309 309 309 308 308 308
309 307 308 310 309 308 305 300 298 301 304 307 308 309 310 310 309 312 313 307 303 304 305 304 307 312 309 307 307 306 306 306 304 306 308 307 307 308 308 308 308 309 309 309 310 311 311 314 315 311 307 304 304 304 304 305 306 306 306 306 306 305 306 306 306 306 306 306 306 305 305 306 305 306 306 306 307 307 307 308 308 308 308 308 308 308
309 308 308 310 308 304 300 299 298 298 302 307 308 307 308 309 310 309 308 307 306 305 306 306 309 312 308 306 308 308 308 307 305 305 307 307 307 308 310 310 309 310 310 309 310 311 312 312 312 311 311 310 309 306 305 304 305 306 306 306 306 306 307 306 306 306 306 306 306 306 306 305 305 305 305 306 306 306 306 307 307 308 308 308 308 308
310 310 310 310 311 309 305 305 304 302 303 308 309 307 308 308 307 306 304 305 306 308 309 310 311 312 309 309 310 309 308 309 308 308 308 308 309 309 310 310 309 310 309 309 309 309 310 310 311 310 311 312 310 308 306 305 304 305 305 306 306 307 307 307 306 306 306 306 306 306 306 305 305 305 305 305 305 305 306 306 307 307 307 307 307 307
310 311 310 311 312 312 311 310 310 309 306 306 307 306 307 308 307 307 307 308 308 309 309 310 311 311 310 310 310 309 309 309 309 309 309 309 309 309 309 310 310 310 309 308 308 308 308 308 309 309 309 310 309 308 307 306 305 305 305 305 305 306 306 306 306 306 305 305 305 305 306 305 305 305 305 305 305 305 305 305 306 306 307 307 307 307
309 309 310 312 312 311 311 310 309 309 308 307 308 307 307 308 308 308 310 310 310 310 309 309 310 311 310 310 309 309 309 309 309 309 309 309 309 309 310 310 310 309 309 308 307 307 307 307 307 308 308 309 308 308 307 306 306 305 305 305 305 305 305 305 305 304 304 304 304 305 305 305 305 305 305 305 305 305 305 305 305 306 306 307 307 307
309 309 309 311 312 311 311 310 308 308 308 308 309 308 307 307 308 309 310 310 310 311 310 309 309 310 310 309 309 309 308 309 309 308 309 309 309 309 309 309 308 308 307 308 308 307 307 307 307 307 307 308 308 308 307 305 305 304 304 304 305 305 304 304 304 304 303 303 303 303 304 304 305 305 305 305 305 305 305 305 305 305 306 306 306 306
309 310 310 309 310 311 310 309 307 306 307 306 307 308 308 307 308 309 310 310 309 311 311 310 309 310 309 308 308 309 308 308 308 308 308 308 308 308 308 308 308 308 308 308 308 307 307 307 307 307 307 307 307 308 307 305 304 303 303 304 304 304 304 303 303 303 303 302 302 303 303 303 304 305 305 304 304 304 304 304 305 305 305 305 306 306
309 311 311 309 309 310 309 308 307 306 306 307 306 307 308 307 308 309 309 310 310 311 311 310 310 310 309 309 308 308 308 308 307 307 308 308 308 308 308 308 308 308 308 308 308 308 307 307 307 307 307 307 306 306 307 306 305 303 303 303 303 303 303 302 302 302 302 301 302 303 303 303 303 303 303 303 303 304 304 304 304 304 305 305 305 305
309 310 310 309 309 310 309 308 308 307 307 308 308 308 307 307 307 308 309 309 310 310 310 310 311 310 309 309 308 308 308 308 308 308 307 307 308 308 308 308 308 307 308 308 307 307 307 307 307 306 306 306 306 306 306 306 305 304 303 302 302 301 301 301 300 300 300 300 301 302 302 302 302 302 302 302 302 303 303 304 304 304 304 304 304 304
307 307 306 306 309 310 309 308 308 307 308 309 309 309 308 307 307 307 308 309 309 310 310 310 310 310 309 308 308 308 308 308 308 308 307 308 308 307 307 307 307 307 307 307 307 307 307 306 306 306 306 305 305 305 305 304 304 303 303 302 301 301 300 300 299 299 299 300 300 300 300 300 300 301 301 301 301 302 303 303 303 303 303 303 304 304
307 307 306 306 309 309 306 306 307 307 309 309 309 309 308 308 308 308 308 308 308 309 310 310 310 309 309 308 308 308 308 308 308 308 308 308 309 308 306 306 307 307 307 307 307 306 306 306 306 305 304 304 303 303 302 301 300 301 301 301 300 299 299 299 298 298 298 299 299 299 299 299 299 299 300 300 301 301 302 302 302 302 302 302 303 303
307 308 306 306 308 308 305 304 305 307 309 309 307 309 310 308 308 309 308 308 308 308 308 308 309 308 308 308 308 308 308 308 308 308 308 307 307 307 306 306 306 306 306 306 306 306 305 305 304 303 302 301 300 299 298 297 297 297 297 297 297 297 297 297 298 297 297 298 297 297 297 298 298 299 299 299 300 300 300 301 301 301 301 301 302 301
307 308 306 305 307 306 303 305 308 310 309 305 303 306 308 308 308 308 309 308 308 308 308 307 307 308 308 308 307 308 308 308 308 307 307 306 306 306 306 306 306 305 306 306 306 305 304 303 301 300 299 298 296 295 295 295 295 295 295 295 295 295 296 296 296 296 296 296 296 296 297 297 297 298 298 298 298 299 299 299 300 300 300 300 300 300
307 306 306 306 306 306 305 306 309 310 308 305 305 304 304 304 305 305 306 307 307 307 307 307 307 307 307 307 308 307 307 307 306 306 306 306 306 306 306 306 305 306 306 305 304 303 301 298 297 296 295 295 294 293 294 294 294 294 294 295 294 294 295 295 295 296 296 296 296 295 296 296 296 297 297 297 296 296 297 298 298 298 298 299 299 299
306 306 307 307 307 308 308 308 308 308 308 308 307 306 304 303 304 304 305 306 306 306 306 306 306 307 307 306 307 307 306 305 305 306 306 306 307 308 307 306 306 307 306 302 299 297 294 292 292 292 291 292 293 292 292 293 293 293 295 295 295 295 295 295 294 294 294 294 294 294 294 294 295 295 295 295 295 295 296 296 297 297 297 297 297 297
305 306 307 307 308 308 308 308 308 309 309 307 306 308 307 305 305 305 305 306 306 305 306 306 306 306 306 306 307 307 306 304 305 307 307 305 306 310 310 308 308 306 301 297 293 292 290 289 290 289 289 290 291 291 291 291 292 294 295 294 294 294 294 293 291 290 290 291 291 291 292 292 293 294 294 294 294 295 295 295 296 296 296 296 296 296
305 306 306 307 308 308 308 309 309 309 310 306 305 307 307 305 306 306 305 306 306 305 306 306 306 306 307 306 307 306 305 304 306 307 306 304 306 311 313 311 308 302 294 290 290 289 288 287 287 288 287 288 289 289 289 290 291 293 293 292 292 292 291 289 289 288 288 289 290 290 291 291 292 293 293 293 294 294 295 294 294 295 295 295 295 294
305 305 306 306 308 308 308 309 308 308 308 305 303 304 304 304 306 307 307 307 306 305 304 304 304 305 305 306 306 305 305 305 306 306 306 304 305 308 309 309 307 302 294 289 288 287 286 285 286 287 287 286 286 286 287 289 290 291 291 290 290 289 288 287 286 286 287 288 289 290 290 290 291 292 292 293 293 293 293 294 293 294 294 294 294 293
305 305 305 306 307 307 308 309 308 308 308 305 304 303 303 304 306 307 307 303 300 299 299 299 300 299 299 301 303 303 304 304 305 305 304 303 303 303 302 299 297 294 291 288 287 286 286 286 286 286 285 284 284 284 286 288 289 289 289 288 288 286 285 285 285 286 287 288 289 290 290 290 290 291 291 292 292 292 292 292 292 293 293 292 292 291
305 306 306 306 307 306 307 308 307 308 307 306 305 304 304 306 306 303 301 296 293 293 294 294 295 293 293 296 298 298 299 300 300 299 299 299 300 300 298 294 292 291 289 287 286 286 286 286 286 285 284 283 283 284 285 286 288 287 287 286 285 283 283 284 285 286 288 289 289 290 290 290 290 290 291 292 292 291 291 291 291 292 291 291 290 290
306 306 306 306 307 307 307 307 308 309 309 307 307 305 303 303 299 294 293 293 290 289 290 291 291 290 290 292 293 293 294 294 294 294 294 295 296 295 293 292 291 291 289 287 286 285 285 286 286 284 283 282 283 284 284 285 287 286 285 285 283 281 282 284 285 286 287 288 288 289 289 289 289 289 290 290 291 290 290 290 290 290 289 289 289 288
305 306 306 306 307 307 307 308 308 305 301 300 302 300 294 291 289 288 290 291 288 286 287 288 288 287 288 288 289 290 290 290 290 291 291 292 293 292 291 289 287 286 286 285 284 283 283 284 284 283 282 281 282 282 282 284 285 285 284 283 281 281 283 284 284 284 285 285 286 287 287 288 288 288 288 288 289 289 288 288 288 288 288 288 288 287
306 306 306 307 306 306 307 306 301 295 290 289 291 290 286 285 286 286 287 287 286 285 285 285 286 286 286 286 286 287 287 287 287 288 288 289 290 289 289 287 285 284 284 283 282 282 281 282 282 282 282 281 280 280 280 281 283 284 283 281 280 281 282 283 284 283 283 283 283 284 285 286 286 286 287 287 287 287 287 287 287 286 286 286 286 285
303 303 305 306 305 306 307 303 295 290 288 286 285 284 283 283 283 284 284 284 284 283 283 283 284 284 284 284 285 285 285 285 285 285 285 286 287 286 286 286 284 283 282 282 281 281 280 281 281 281 281 280 279 279 278 279 280 281 281 280 280 282 282 283 283 283 282 282 282 282 284 284 284 285 285 285 286 285 285 285 285 285 285 284 284 284
300 300 302 304 306 307 305 299 292 290 287 286 284 283 282 281 281 282 282 282 281 282 281 282 282 283 283 283 283 283 283 283 283 283 283 284 284 283 283 283 283 282 281 280 280 279 279 280 280 280 279 279 277 276 276 276 277 277 278 279 280 282 283 282 282 282 281 281 281 281 282 282 282 282 283 283 283 283 283 283 283 283 283 282 282 281
299 299 301 303 305 306 300 291 288 288 285 283 283 282 280 280 280 280 280 280 280 280 280 280 281 281 282 282 281 281 282 282 282 281 282 283 282 281 281 280 280 279 279 278 277 277 278 278 278 277 277 276 275 274 274 274 275 275 276 277 279 281 281 281 281 280 280 280 280 280 280 280 280 280 280 280 281 281 281 281 281 281 280 280 280 280
292 297 298 297 299 301 297 289 287 290 289 284 281 280 279 278 278 278 278 278 277 278 278 279 280 280 280 279 279 279 280 280 280 280 280 281 281 280 279 279 278 278 278 277 275 275 275 275 275 274 274 274 274 273 273 273 274 274 274 276 277 279 280 280 279 279 279 279 279 279 279 279 279 279 279 278 278 278 278 278 279 279 279 279 279 279
288 293 292 293 298 299 292 285 283 288 290 286 280 278 277 277 276 276 276 275 275 276 276 276 278 279 278 278 278 277 277 278 278 278 278 279 279 279 278 277 277 277 276 275 274 274 273 273 272 272 272 273 272 272 271 272 273 273 274 275 276 277 278 278 278 278 278 278 278 278 278 278 278 278 278 277 276 276 276 276 277 277 277 277 278 278
281 283 283 286 291 289 282 277 277 280 283 282 278 276 276 275 273 274 273 272 273 273 273 274 276 277 277 276 276 276 275 274 275 276 276 277 278 278 277 276 276 276 275 274 273 273 272 272 271 271 271 271 271 270 270 271 272 273 273 274 275 276 277 277 277 277 277 277 277 277 277 277 276 276 276 276 275 275 275 275 275 276 276 277 277 277
Wind_Speed
2 4 6 8 10 9 8 9 12 13 10 8 8 9 10 11 13 15 16 9 2 6 12 14 18 20 22 22 22 21 18 17 19 19 18 17 16 14 15 16 15 16 16 14 14 18 18 18 19 18 18 19 22 26 27 28 29 30 29 28 29 29 28 28 28 29 28 25 22 22 23 23 24 24 26 27 25 23 22 18 18 20 21 22 22 22
2 6 10 12 10 6 3 5 10 11 10 9 9 9 9 10 12 15 16 9 1 3 10 15 20 22 21 22 22 20 17 16 17 17 17 17 16 13 14 16 15 14 13 12 13 15 16 16 15 15 18 20 20 21 24 26 27 26 27 29 29 28 28 29 30 31 30 28 26 22 21 21 20 23 26 27 27 26 22 19 18 18 21 22 21 22
5 9 13 9 3 1 2 3 6 9 10 10 7 7 8 7 9 13 9 1 2 3 10 16 19 21 22 22 21 17 14 14 13 13 14 14 14 13 13 13 12 12 12 12 13 12 12 11 11 12 14 19 20 19 21 23 25 25 27 29 28 28 29 30 31 32 31 29 28 22 18 18 16 19 25 23 25 26 23 21 19 18 19 20 20 20
6 7 8 3 5 5 4 3 5 6 7 7 6 6 8 7 6 8 3 1 2 6 11 15 15 17 19 16 15 12 10 10 9 10 11 11 12 13 12 10 10 12 13 12 12 11 9 8 8 9 10 13 18 20 20 22 24 26 27 28 29 28 28 29 31 32 31 28 27 24 19 18 16 16 21 21 21 24 24 21 20 18 19 20 19 19
10 4 2 4 6 6 5 4 6 5 5 7 8 8 9 10 8 9 7 8 11 7 5 11 13 11 8 8 11 6 5 8 7 8 9 8 9 10 10 10 10 12 13 13 13 11 8 6 5 7 7 8 12 16 19 22 25 26 26 27 28 28 27 28 30 31 30 27 25 23 18 15 15 14 16 17 17 21 23 22 21 20 20 21 21 20
12 4 5 3 4 6 6 6 7 6 7 7 9 11 13 13 11 11 10 10 10 4 3 8 10 8 6 11 11 5 5 8 5 4 5 4 4 5 6 7 8 9 10 11 12 11 8 6 6 6 6 7 9 11 15 18 21 22 22 23 25 25 26 27 28 29 30 27 24 23 18 16 15 14 16 19 22 24 26 26 25 23 24 24 23 23
6 2 4 7 8 8 8 9 7 7 6 8 3 8 12 11 9 9 8 6 6 7 3 4 4 8 13 14 6 5 11 10 4 1 1 1 1 1 2 4 5 6 6 7 9 9 8 7 7 7 7 8 7 8 11 12 14 16 17 19 22 23 24 25 27 28 29 26 24 24 21 18 17 15 16 20 22 24 24 23 23 24 25 25 23 22
3 4 4 6 7 8 8 8 7 10 7 5 2 2 5 6 7 6 6 5 5 8 6 2 4 6 10 11 5 8 12 6 3 1 1 0 2 2 3 4 5 6 5 6 6 6 7 6 6 6 5 6 6 7 8 9 10 12 12 15 19 20 22 24 26 28 30 26 23 24 21 17 16 12 11 14 15 16 18 18 19 21 23 23 22 21
3 5 6 7 6 6 6 4 6 12 8 2 3 1 2 3 6 4 4 6 4 7 6 3 4 4 8 10 6 5 6 2 1 4 6 8 7 5 5 5 6 6 5 5 5 5 4 3 3 3 3 5 7 8 8 9 9 10 11 13 16 18 20 22 24 27 28 26 23 22 19 16 15 11 10 13 14 14 17 18 19 20 22 23 22 21
2 1 3 6 6 5 4 1 5 12 7 1 2 2 2 3 4 3 4 5 3 5 6 2 5 4 8 9 5 2 1 2 5 7 9 11 10 7 4 4 7 7 4 4 4 4 4 2 1 1 2 4 7 8 8 9 9 10 11 12 15 17 18 20 23 26 27 25 23 20 18 16 14 13 12 12 13 15 16 17 18 19 19 20 21 20
0 1 0 4 5 2 3 3 2 5 2 2 1 3 4 5 4 2 3 3 3 5 2 2 3 4 6 7 3 0 1 3 7 10 12 12 12 11 6 3 5 7 5 4 4 4 2 2 2 1 2 3 5 7 8 9 10 10 11 12 14 16 17 19 21 24 25 25 24 20 19 18 16 17 16 13 12 14 15 15 16 18 17 19 21 20
7 6 3 3 1 2 3 2 1 1 1 1 2 3 6 4 2 2 2 2 4 4 2 3 2 5 6 6 3 2 3 5 8 10 13 15 15 15 12 7 5 6 6 5 4 4 2 1 2 1 2 3 4 6 9 10 11 11 11 12 14 15 16 18 20 23 24 25 25 23 22 22 20 20 20 16 14 16 17 15 16 17 16 17 20 20
7 9 6 3 1 3 5 3 2 3 2 3 3 2 5 5 3 3 2 2 4 2 2 2 1 4 9 11 13 15 13 9 9 9 13 16 16 15 14 11 8 6 6 5 4 4 3 1 1 2 2 3 3 5 8 11 12 12 13 13 13 14 16 17 19 21 22 24 25 24 24 24 22 22 22 18 16 18 19 16 17 18 17 17 19 21
3 3 5 6 2 4 9 7 4 4 5 6 5 3 4 4 4 4 3 2 3 1 1 2 2 5 8 9 13 15 11 7 7 10 12 13 13 13 12 11 9 7 5 4 4 4 3 3 2 1 2 2 2 4 7 10 12 12 13 13 12 13 15 17 18 19 21 22 23 23 24 24 22 22 22 19 17 20 21 18 20 22 21 20 22 25
4 2 4 5 1 4 11 8 1 2 5 5 4 2 4 5 4 4 3 3 3 3 1 2 1 5 5 4 6 8 8 5 4 6 8 8 8 8 8 8 7 6 5 4 4 5 5 4 4 3 2 2 2 4 6 9 10 11 12 13 12 12 14 16 17 19 20 21 22 23 23 23 23 22 23 21 19 22 23 21 22 24 24 24 25 27
4 4 2 2 1 2 6 2 3 3 4 2 2 2 4 4 4 4 2 2 3 4 3 4 3 4 6 11 13 10 6 3 1 2 4 6 5 5 5 6 7 6 6 6 6 6 6 5 4 3 3 3 3 5 8 9 10 11 12 13 13 13 14 16 17 18 20 21 22 23 23 23 24 23 23 22 21 23 24 24 24 24 25 25 24 26
3 1 3 2 1 1 0 0 1 1 2 3 4 4 1 1 2 4 1 1 1 4 3 3 4 5 6 10 8 3 3 2 2 2 3 4 4 3 5 6 7 7 7 6 6 6 6 6 5 4 3 3 3 5 7 9 11 12 12 13 13 14 14 16 18 18 19 20 21 22 22 23 24 24 24 24 24 24 24 24 24 24 24 24 24 24
3 1 2 1 1 2 2 1 2 2 1 3 3 2 2 1 1 1 2 1 2 5 3 2 6 6 3 4 2 3 7 7 7 7 5 4 4 4 4 5 5 5 5 5 5 5 5 4 5 4 3 4 5 4 5 7 9 12 13 13 14 15 16 17 18 19 19 20 20 21 22 23 23 24 24 24 24 24 24 24 25 24 24 24 24 23
3 2 1 1 0 2 0 2 3 2 1 0 0 0 1 2 2 2 2 3 2 6 4 2 5 5 4 5 5 7 8 8 9 8 7 6 5 4 4 5 6 6 5 6 6 5 4 4 4 4 4 5 5 4 3 4 6 9 12 14 15 16 16 16 17 18 19 20 20 21 21 22 23 23 24 25 24 25 25 26 26 25 24 23 23 23
2 4 2 2 1 1 2 4 5 5 3 1 1 1 0 2 1 1 1 1 2 4 5 3 2 3 6 5 5 8 8 6 6 5 6 6 4 3 4 5 5 5 4 4 5 5 5 4 3 2 3 5 5 4 4 4 5 6 8 11 13 14 15 15 17 18 19 20 21 21 21 22 23 23 24 25 25 25 26 26 26 25 24 23 23 23
2 4 2 2 1 2 4 4 5 6 7 5 5 5 4 1 0 1 2 0 1 3 4 4 4 5 3 3 5 9 7 4 3 4 5 5 4 3 3 4 4 4 4 3 2 3 4 4 4 2 4 5 5 4 3 4 5 6 7 9 10 12 14 15 17 18 19 20 21 21 22 22 23 24 24 25 25 26 26 26 26 25 24 24 25 24
4 4 3 4 3 5 3 1 1 2 2 4 5 7 7 6 3 3 4 1 0 3 2 2 6 8 3 2 4 4 2 2 3 3 5 6 6 4 3 3 4 4 5 4 3 3 3 3 4 4 5 6 5 5 5 6 7 8 9 9 10 11 13 15 17 18 19 20 21 22 22 22 23 24 24 25 26 26 27 26 26 26 25 26 26 26
2 1 3 3 3 2 2 3 1 3 2 0 3 4 5 7 7 6 5 3 3 2 0 1 4 6 2 1 1 1 1 3 1 2 5 7 8 7 5 3 4 5 5 5 3 3 3 3 3 3 4 6 6 7 8 9 10 11 12 12 12 13 14 15 16 17 19 20 21 21 22 22 23 24 25 25 26 27 28 27 27 26 26 27 27 27
2 2 4 4 2 2 3 2 1 2 1 2 4 4 6 7 7 4 2 1 3 4 3 2 5 4 1 2 1 1 2 3 2 4 5 7 8 9 9 5 4 6 7 6 4 3 3 3 3 3 4 4 4 6 9 11 12 14 16 16 17 17 17 17 16 17 18 20 22 22 22 23 24 24 25 26 27 27 27 28 28 28 27 27 28 28
5 4 5 4 3 3 2 3 2 1 3 4 4 6 8 8 4 2 1 1 3 7 8 6 8 5 1 1 1 2 3 6 5 4 3 6 9 10 11 10 7 7 9 9 8 6 5 5 4 5 4 4 4 7 10 14 15 16 19 20 21 21 21 20 20 19 19 20 22 24 25 25 25 26 27 27 28 28 27 28 29 29 29 29 29 30
5 4 6 6 6 6 5 4 3 3 4 3 4 7 11 13 11 6 3 5 6 7 10 9 10 8 2 1 5 6 9 13 14 10 7 8 11 11 11 11 9 8 8 9 9 9 8 7 7 6 6 5 6 8 10 14 16 18 19 21 22 22 22 22 22 21 20 21 23 25 27 28 28 28 29 29 29 28 28 28 29 30 30 31 32 32
2 2 6 8 8 8 4 2 2 3 5 5 7 10 13 14 15 11 6 6 7 7 9 11 13 16 8 3 11 13 12 16 17 15 13 11 12 12 10 10 10 9 9 8 8 8 8 9 10 10 8 6 7 10 12 14 15 17 19 21 22 21 20 21 20 19 21 22 24 27 29 30 30 30 31 31 30 29 28 28 29 31 32 32 33 33
1 3 7 9 10 8 2 1 4 3 4 6 8 11 13 14 16 15 11 9 9 8 10 11 15 21 10 3 15 19 14 16 17 15 16 15 14 14 11 10 12 12 11 10 9 9 10 11 11 11 11 8 8 10 13 15 17 18 19 21 22 22 20 20 19 20 22 23 24 28 30 30 30 31 32 31 30 29 29 28 29 30 31 32 33 34
2 4 5 7 10 9 5 4 4 4 5 6 8 11 12 14 17 18 16 13 12 11 11 11 17 23 14 7 16 21 17 15 14 15 17 16 15 16 12 10 14 16 14 12 12 11 11 12 11 11 12 10 9 9 10 13 16 18 20 22 23 24 23 22 20 22 24 24 25 29 30 30 30 31 31 30 29 29 29 29 29 30 31 31 32 33
2 4 4 6 8 9 10 9 6 7 8 8 10 13 12 15 18 18 17 17 17 20 17 10 17 23 15 10 16 19 19 16 11 12 16 16 16 17 13 12 15 18 16 14 13 11 10 11 12 11 11 11 11 10 9 9 11 14 18 21 22 22 22 21 21 22 24 25 28 30 30 30 29 29 28 28 29 29 29 29 28 29 30 30 31 32
4 3 3 4 5 7 8 8 8 10 10 12 15 16 14 14 15 15 14 14 16 19 16 15 21 19 10 11 16 15 16 19 16 14 15 16 17 15 12 12 16 17 16 14 12 11 10 10 11 11 11 11 11 11 10 9 9 10 13 17 19 19 19 19 20 22 24 26 29 30 29 28 27 26 27 27 28 28 28 28 28 28 29 29 30 31
5 3 3 3 5 6 5 6 8 8 9 16 20 18 17 15 12 13 13 13 15 16 13 14 19 14 9 11 14 11 12 20 23 19 15 12 11 10 10 12 15 15 14 14 12 10 11 11 10 10 10 10 11 11 10 9 9 10 11 12 15 17 17 18 20 22 24 26 28 27 26 25 25 25 26 27 27 27 28 27 27 27 28 29 30 30
4 4 2 4 6 5 1 3 3 2 5 13 13 11 17 17 14 15 13 13 17 14 10 13 14 8 6 9 13 14 15 19 21 15 7 2 2 6 10 11 13 14 14 14 12 10 11 11 9 8 8 9 10 11 12 11 9 9 10 11 13 15 16 17 19 22 23 24 24 23 23 23 23 24 25 26 26 26 26 26 26 27 28 29 29 29
3 5 3 3 5 4 1 4 3 3 10 10 1 6 14 18 19 19 17 15 18 15 13 15 12 6 7 10 14 17 18 19 15 6 1 3 5 8 11 11 12 15 16 15 12 9 8 8 6 6 7 8 10 13 16 15 10 9 10 11 13 14 14 15 17 18 19 19 18 18 19 20 21 22 23 24 24 24 25 25 26 26 26 26 27 27
4 5 3 2 3 2 2 4 3 8 9 3 4 5 6 10 11 14 16 16 16 16 18 20 17 15 16 17 17 18 19 17 12 8 7 12 12 9 11 13 13 15 14 12 10 7 5 4 5 6 7 9 12 15 17 16 14 13 10 9 8 8 10 12 11 12 13 13 13 13 15 16 17 19 20 20 20 20 20 21 21 21 21 21 23 25
6 5 3 2 2 2 2 5 8 9 7 7 6 2 4 2 2 4 11 14 14 16 18 18 19 20 20 20 19 16 11 9 10 11 13 15 13 9 10 12 13 13 10 6 6 5 4 4 4 5 7 9 11 14 16 17 18 16 10 7 5 3 4 5 5 5 6 7 8 9 11 13 15 16 16 16 15 15 15 15 16 18 19 18 17 17
7 5 4 4 4 4 5 6 7 11 15 14 12 7 7 8 8 6 10 11 11 14 15 15 19 21 20 20 19 9 2 5 7 13 12 7 7 7 7 8 9 7 5 4 3 3 3 3 3 3 6 8 9 11 14 17 17 14 9 7 6 4 3 3 3 4 4 4 5 5 7 9 11 12 12 12 13 14 14 13 14 16 18 18 15 15
10 7 6 6 5 4 6 7 6 10 12 5 3 6 7 9 7 6 7 6 7 12 16 16 18 19 16 17 12 0 4 1 7 10 6 3 2 3 3 4 5 4 4 3 3 2 3 3 3 3 5 7 7 9 12 13 13 10 7 6 5 4 5 5 5 4 4 3 4 4 4 5 6 8 9 10 12 12 12 12 13 16 18 17 15 14
12 9 8 7 5 5 7 8 8 11 10 1 6 4 2 2 6 6 4 5 8 14 14 11 14 16 12 11 6 3 3 5 6 6 3 4 2 2 2 3 3 3 3 3 3 3 4 4 3 3 4 5 6 9 11 11 9 6 4 4 5 5 5 5 5 4 3 3 2 2 2 2 4 6 7 8 9 10 10 11 13 16 16 16 15 14
13 10 8 9 9 8 9 9 7 7 7 1 4 1 0 4 8 6 5 4 2 4 5 5 5 9 7 7 5 2 5 6 5 4 1 1 1 1 1 2 3 2 2 2 2 2 3 3 3 3 4 5 7 9 10 8 6 5 4 4 4 5 5 5 4 4 3 2 2 3 2 1 2 3 4 5 7 9 11 12 13 15 16 16 15 15
10 9 8 10 10 8 10 11 7 6 9 6 3 2 2 5 4 6 6 3 7 8 11 12 10 10 10 8 6 3 5 7 7 5 4 3 4 2 2 3 3 3 3 1 1 2 2 2 3 3 4 5 7 8 8 6 5 4 4 5 5 5 6 5 4 3 2 2 3 4 4 3 2 2 2 4 6 9 10 11 13 16 17 16 13 13
8 7 7 9 9 7 9 9 5 7 11 8 5 4 4 6 4 4 1 5 9 8 10 11 11 12 11 9 8 7 10 13 13 11 11 11 10 7 5 5 5 4 3 1 1 3 3 2 4 4 5 6 8 7 6 5 3 3 4 4 5 6 6 5 4 2 2 4 5 5 5 5 4 4 4 6 8 9 9 10 14 16 15 14 12 13
8 8 6 8 8 6 6 7 6 7 7 4 8 5 2 3 2 3 3 6 8 9 9 9 9 10 10 10 10 11 12 13 13 13 14 14 14 11 8 8 8 8 8 7 7 9 8 5 4 5 6 7 8 7 5 4 1 1 2 2 3 4 4 3 2 2 4 6 7 8 8 7 6 6 7 8 9 10 11 12 14 14 12 12 13 13
8 8 5 6 7 6 6 7 5 2 3 3 4 4 2 3 3 4 4 5 8 9 8 7 8 10 10 10 11 11 11 12 12 13 13 12 14 14 11 9 9 10 11 11 12 15 15 11 8 7 7 9 10 9 7 5 2 1 2 1 1 1 1 1 1 2 3 5 7 8 9 9 8 7 8 8 8 11 13 14 14 13 12 15 16 14
8 8 4 4 7 7 6 4 4 7 7 9 8 8 9 7 6 6 6 6 6 7 7 6 8 11 11 11 10 8 9 11 12 12 13 12 12 13 12 9 8 8 10 11 14 17 16 14 13 12 10 10 12 12 11 10 6 2 1 2 2 2 2 2 2 3 4 5 7 8 9 11 11 10 9 9 9 10 12 12 13 13 13 15 17 16
2 2 2 0 5 8 6 5 10 10 9 11 11 11 9 8 8 8 7 7 6 6 6 6 8 10 12 12 10 8 9 12 12 11 12 11 11 12 11 9 8 8 9 10 12 15 15 14 14 14 13 13 13 13 14 14 12 7 2 1 2 2 3 4 6 7 7 7 8 8 8 10 11 11 11 11 11 11 11 10 11 11 11 12 13 14
4 4 3 1 4 7 5 4 9 9 10 11 9 8 10 10 9 8 7 6 6 6 6 7 8 9 10 11 12 11 11 12 12 11 10 10 10 11 11 10 9 9 9 10 11 13 13 11 11 12 13 14 15 15 15 15 15 12 6 1 2 4 6 7 8 9 9 8 7 7 8 9 9 11 12 12 12 12 11 10 11 10 9 8 9 9
3 4 1 1 1 2 3 6 7 8 11 12 10 7 8 9 9 9 8 7 7 7 7 7 8 8 8 10 11 12 11 11 11 11 11 10 9 9 8 8 8 8 9 11 12 11 10 8 8 9 10 11 13 15 15 15 15 14 10 5 0 5 8 8 8 9 9 8 8 9 10 10 9 11 12 13 13 13 12 11 11 11 9 8 8 8
3 3 2 2 3 1 4 7 7 4 8 11 13 11 9 8 9 9 8 8 9 10 9 9 8 7 7 9 10 11 11 11 11 12 12 10 9 8 8 8 7 7 7 9 9 9 8 7 6 7 8 9 11 12 13 14 14 14 12 8 3 3 6 8 10 10 10 9 10 11 13 14 14 15 17 18 18 18 16 14 13 14 13 10 9 9
3 3 3 3 2 1 1 5 7 2 2 4 11 13 11 9 9 10 9 10 11 11 11 12 10 7 7 8 9 10 10 11 12 13 12 10 9 10 10 9 7 6 6 6 6 6 7 6 7 7 7 8 9 10 11 12 13 13 11 9 5 3 4 8 9 8 7 7 7 9 13 16 19 21 23 24 24 24 23 20 17 16 16 14 12 12
4 3 4 2 1 1 4 4 5 3 3 5 10 12 10 9 10 10 10 11 11 11 11 12 11 9 9 8 9 9 10 11 13 13 12 11 11 11 12 11 9 7 7 7 6 6 7 7 7 7 7 8 8 8 9 11 12 11 10 7 6 5 4 5 5 4 4 5 6 8 10 12 16 21 23 25 27 28 28 27 24 22 20 18 16 16
Wind_Direction
196 230 226 236 241 243 230 223 245 269 288 287 280 277 277 283 284 284 290 299 336 295 282 277 282 284 285 284 280 278 276 266 257 255 256 256 254 253 251 252 250 247 252 255 253 253 251 249 247 245 242 240 244 244 241 240 239 237 236 236 235 234 230 224 218 215 210 204 200 200 204 207 208 208 210 213 213 214 214 212 215 215 214 216 215 214
206 230 237 237 240 262 264 240 254 265 271 266 265 276 279 272 277 283 291 306 359 259 280 289 290 286 283 282 279 279 278 267 258 255 255 255 254 252 253 253 253 253 257 259 257 254 252 247 240 238 240 238 237 238 236 234 235 235 235 234 232 229 226 222 219 214 210 207 202 200 202 203 201 204 208 211 212 213 211 209 212 213 215 216 216 215
223 237 247 240 188 135 258 246 248 253 259 260 257 268 276 274 284 285 282 321 103 245 291 303 300 291 284 280 277 277 275 268 262 256 255 260 262 260 258 258 259 261 261 260 259 258 253 242 230 228 234 234 234 237 236 236 237 236 233 231 228 226 224 221 219 215 212 210 208 205 202 198 196 205 210 210 211 213 210 209 211 213 214 214 213 214
227 240 257 233 137 176 216 214 220 244 250 243 243 253 268 278 291 286 276 88 287 273 288 297 292 284 282 279 274 264 258 270 272 260 257 259 262 264 267 272 274 271 271 270 266 264 253 239 230 226 230 235 239 241 241 239 237 234 231 229 226 224 221 218 217 214 211 210 208 207 207 203 199 206 210 208 211 213 212 211 212 212 211 210 211 211
240 198 114 106 136 183 213 200 198 238 260 234 230 241 263 271 264 267 290 317 302 274 278 306 298 282 282 297 302 285 242 267 267 259 266 259 255 265 275 279 276 270 271 272 271 268 256 243 236 232 236 239 237 238 239 239 235 232 230 228 224 221 218 216 215 212 208 206 204 201 201 201 203 205 203 202 207 210 212 212 211 209 207 207 207 207
250 192 137 162 170 187 225 239 207 216 272 263 224 223 246 264 268 273 293 317 311 283 60 4 324 299 312 311 314 334 319 315 309 280 298 294 265 266 278 283 280 274 269 266 267 267 263 254 244 243 246 238 232 234 236 235 231 228 226 223 218 214 213 213 212 209 205 202 197 190 186 185 189 192 194 199 203 206 210 212 210 209 209 207 206 205
252 167 178 229 229 214 234 254 210 183 255 281 231 215 238 258 270 279 291 302 307 301 338 30 302 289 309 311 328 360 329 341 30 61 58 121 236 248 297 308 301 296 288 274 268 263 257 249 241 245 238 226 227 229 226 223 217 216 217 214 210 207 208 208 206 205 201 197 193 191 190 189 188 191 196 200 203 204 205 206 206 206 208 207 205 204
177 160 185 212 223 219 233 248 192 174 229 273 76 194 232 246 260 266 280 273 287 305 295 200 226 274 295 297 330 348 328 345 92 85 63 300 303 307 314 321 310 314 317 301 289 274 259 242 235 235 213 203 216 220 212 204 198 199 202 204 203 203 205 205 202 201 199 195 193 193 194 196 198 197 192 190 191 195 196 195 199 202 205 207 206 205
131 183 193 185 197 213 223 240 169 179 220 288 81 222 230 245 265 257 268 274 289 308 296 185 188 265 272 274 302 344 328 317 296 320 327 325 333 330 321 326 319 321 325 313 306 301 294 262 233 214 176 185 205 206 194 190 188 187 190 194 198 199 202 203 201 200 199 197 196 195 196 199 202 200 194 192 191 195 198 199 202 204 205 208 206 204
73 198 212 190 203 219 206 154 163 186 205 45 116 216 244 236 251 240 254 279 285 280 289 174 172 257 285 280 292 341 310 303 313 318 319 321 325 317 311 328 325 326 329 329 322 313 326 351 10 150 165 184 198 194 182 180 179 179 183 186 192 195 198 200 200 199 199 199 199 197 197 199 199 200 199 198 198 200 202 201 203 204 203 204 204 203
219 91 355 215 221 214 132 97 166 196 171 41 199 249 272 237 216 219 238 271 269 255 282 89 181 244 292 290 284 18 56 339 318 314 314 318 318 311 309 329 329 329 327 332 340 333 341 30 42 97 176 183 189 184 177 178 178 179 181 181 186 192 195 197 198 198 199 200 201 200 201 201 200 203 200 193 192 194 196 195 199 202 201 204 206 205
241 223 206 207 201 119 127 130 164 156 48 295 258 302 300 274 216 214 188 178 249 256 108 87 238 229 249 271 285 281 276 292 303 310 310 311 314 312 315 328 336 329 321 324 332 329 336 114 123 145 171 169 181 183 181 183 184 185 185 183 185 189 192 195 196 198 200 201 203 204 207 208 207 208 205 197 195 195 195 194 196 199 199 202 205 205
240 232 199 170 182 169 180 189 161 147 168 213 224 271 287 295 285 254 225 200 244 272 113 113 312 241 244 261 273 276 283 299 313 313 307 304 305 307 315 327 333 322 313 316 320 312 307 283 159 162 179 183 192 191 190 190 189 191 193 190 190 190 190 192 194 197 199 203 205 207 209 211 211 212 210 206 205 206 203 198 198 198 196 197 200 204
238 227 170 173 195 178 191 207 218 187 171 187 201 217 242 270 283 259 255 266 262 296 129 132 327 278 263 261 258 264 281 313 315 304 302 300 299 304 314 321 320 317 316 314 311 308 308 310 305 264 213 209 210 201 197 199 197 197 200 198 197 198 196 195 195 197 200 204 208 210 211 212 212 213 213 211 211 213 211 205 206 206 204 204 206 210
236 264 157 169 143 168 195 213 271 125 154 183 185 202 240 240 261 270 285 294 296 323 238 167 282 270 268 308 289 278 290 301 297 303 309 306 303 306 313 321 326 334 342 340 322 309 307 311 308 304 301 296 271 234 214 209 207 205 206 205 204 205 205 201 199 201 203 207 210 212 213 213 214 215 215 215 216 218 217 215 215 216 214 214 215 217
232 278 102 106 356 193 198 201 40 109 165 175 132 193 247 232 235 263 325 342 311 311 261 200 240 257 271 297 297 295 298 289 251 309 319 326 326 321 333 352 359 1 358 349 340 325 318 321 317 307 309 308 278 243 229 223 219 215 212 211 210 211 212 207 205 206 207 209 212 214 215 215 216 217 217 217 219 222 222 222 222 221 221 220 221 223
214 276 85 102 205 151 241 110 74 245 194 150 162 198 217 25 257 244 229 83 229 277 263 206 254 275 289 289 280 287 321 1 54 21 352 347 340 344 10 15 9 7 4 351 339 330 324 326 322 314 312 306 287 254 240 236 230 226 223 220 218 217 217 214 211 211 211 212 215 216 217 219 219 220 220 221 223 225 224 224 224 224 224 224 223 225
210 244 101 153 169 94 351 263 102 8 311 150 179 193 115 79 309 265 266 280 239 265 268 205 259 280 304 296 300 356 342 358 21 16 14 6 360 8 16 18 15 8 1 355 349 341 335 335 327 318 317 316 311 293 271 258 244 236 233 229 226 223 221 218 216 215 215 215 216 217 218 220 222 223 224 225 227 227 226 225 224 223 224 225 225 225
208 238 143 139 174 99 152 215 142 100 358 18 258 86 84 223 181 145 245 276 269 278 283 232 263 269 228 252 304 328 336 353 3 6 16 15 14 13 356 359 9 8 5 9 7 358 351 346 334 326 328 330 331 329 315 286 258 242 239 235 231 230 227 224 221 220 220 219 219 220 220 221 222 224 225 226 227 226 225 225 225 224 225 227 227 227
190 240 220 148 290 74 177 215 192 168 140 54 234 172 211 280 251 165 199 272 257 280 300 290 287 257 215 221 285 295 310 337 345 354 7 0 356 359 352 352 354 354 1 10 0 349 343 332 323 315 313 319 325 334 326 294 272 252 246 243 239 238 236 232 229 225 224 223 222 222 222 222 222 223 224 226 225 225 225 226 226 226 226 227 227 227
166 229 226 139 191 218 195 207 204 182 167 178 196 186 185 186 339 271 220 173 258 262 287 292 290 279 239 195 241 266 290 319 312 312 318 319 318 324 332 327 322 325 330 337 338 327 322 318 318 300 297 310 312 312 305 288 284 272 258 253 248 245 241 236 232 227 225 223 223 223 223 222 222 222 223 224 225 225 226 227 227 227 226 226 226 226
179 208 206 156 183 211 201 75 327 273 169 179 198 193 189 178 174 226 222 176 251 255 260 291 293 289 276 187 221 247 281 279 252 263 290 307 310 303 280 273 284 295 311 321 322 315 308 303 311 309 307 311 299 281 272 265 270 271 264 259 252 249 247 242 237 231 228 225 223 223 223 223 222 222 222 222 223 224 225 226 226 225 225 225 226 225
133 185 207 197 201 195 67 53 351 315 11 58 249 212 190 192 199 220 230 192 163 208 5 29 288 287 297 92 81 93 281 292 260 232 284 308 310 308 294 252 263 283 291 301 302 303 303 283 279 288 292 296 291 282 274 261 256 258 259 258 254 252 252 250 244 239 234 231 228 226 224 224 223 222 221 221 222 224 225 225 225 224 224 224 226 226
112 183 210 235 231 114 75 87 92 359 56 213 246 215 199 209 211 223 240 166 160 180 167 186 237 253 350 47 81 149 230 258 220 208 256 296 304 310 309 301 309 308 300 300 298 285 274 266 263 271 273 279 283 282 280 272 265 259 254 252 250 251 254 254 250 246 240 236 235 231 228 227 226 224 222 221 223 224 225 226 225 224 223 223 224 225
180 186 189 214 215 173 164 165 165 213 215 224 224 197 205 208 182 106 76 191 220 202 191 215 242 240 53 30 247 243 259 264 257 224 237 301 308 312 313 311 315 309 301 306 311 305 295 286 282 283 283 279 265 266 271 272 270 264 258 253 248 248 251 252 250 247 243 240 239 236 232 230 228 227 226 225 225 225 225 225 225 225 223 221 222 224
186 186 179 192 209 212 205 188 193 191 178 206 220 199 203 199 182 168 188 210 214 200 197 218 245 248 242 322 285 284 290 291 296 298 298 302 297 295 299 303 307 305 300 306 309 307 305 299 289 279 272 270 267 264 265 267 268 268 267 263 257 252 250 251 251 249 246 243 240 238 235 233 230 230 231 230 229 228 225 224 224 225 223 221 221 222
163 213 201 214 229 230 220 174 150 131 142 178 204 200 202 201 194 195 214 216 206 217 218 209 236 257 255 275 283 280 283 287 291 297 300 294 285 282 282 288 298 301 301 301 296 293 295 292 288 282 271 261 262 265 267 268 268 268 270 271 269 264 259 257 256 255 253 248 242 239 237 235 233 233 233 233 231 230 227 224 224 224 224 222 221 221
142 225 211 224 240 249 269 125 145 170 200 198 198 201 201 200 199 202 215 207 190 231 241 192 218 255 255 218 271 276 277 278 281 289 291 289 287 286 284 290 297 295 291 291 285 282 284 282 282 283 279 270 260 262 267 268 269 268 266 268 270 269 267 265 263 262 260 253 246 243 241 239 238 237 236 235 233 231 229 226 225 224 224 223 221 221
207 235 201 205 234 242 237 216 184 199 237 225 214 216 204 196 199 207 217 209 192 227 243 182 201 241 244 215 253 268 272 271 276 282 282 283 285 284 286 299 300 292 287 285 282 280 278 278 279 279 280 280 272 264 261 262 266 266 263 265 268 268 267 267 265 263 260 254 249 248 248 246 244 240 238 236 233 231 229 227 225 224 224 224 223 222
226 240 184 188 232 239 226 224 212 215 240 244 233 227 213 202 202 206 214 213 213 231 242 225 227 242 244 233 243 258 271 274 273 274 276 277 274 276 288 301 294 287 286 286 285 281 274 272 276 276 277 281 279 274 268 262 261 260 260 264 266 266 266 266 262 258 254 252 252 253 252 250 246 242 239 236 232 229 228 226 225 224 223 224 223 223
230 229 135 150 238 244 221 217 221 226 241 249 240 226 216 214 210 211 218 215 221 237 244 247 255 253 240 241 248 254 273 282 277 265 266 272 275 283 296 292 281 280 284 288 287 283 278 274 272 274 275 276 280 284 284 281 273 261 256 259 261 264 266 263 257 253 251 250 252 253 251 248 244 241 238 236 231 228 226 225 223 222 222 221 222 222
219 230 95 125 243 247 198 195 226 236 251 261 254 232 216 218 211 210 216 206 212 233 238 239 254 256 226 238 259 262 262 270 272 269 269 276 285 290 282 270 272 279 286 289 288 284 285 282 279 282 284 285 292 297 298 301 299 287 274 267 266 268 267 259 254 251 250 251 252 251 248 244 241 237 235 233 229 226 224 223 221 219 218 218 219 219
193 208 161 168 232 256 141 146 195 218 258 265 259 216 204 214 216 217 219 208 208 219 231 235 245 251 223 231 257 263 253 253 262 271 277 272 260 266 266 269 279 287 287 287 287 287 287 288 292 299 301 302 305 306 310 316 309 294 291 288 282 276 266 254 251 250 251 252 253 251 248 244 238 235 232 229 226 224 222 219 217 216 216 216 216 215
182 205 196 182 226 257 103 107 110 212 244 258 284 147 190 204 212 221 226 219 213 213 229 248 254 261 253 244 246 253 252 251 261 284 322 262 264 275 282 286 288 288 288 288 290 291 287 292 309 314 311 314 315 314 315 315 310 305 306 301 290 278 265 253 248 248 251 254 254 252 248 243 237 234 231 226 222 219 217 216 215 214 214 214 213 212
170 195 199 191 227 243 113 114 187 228 237 261 64 107 188 205 211 228 237 232 223 220 231 247 257 259 259 256 249 247 253 264 290 325 301 276 280 285 286 288 287 285 287 296 306 311 314 325 329 326 325 325 323 320 319 319 321 326 325 315 299 279 266 262 256 254 256 257 256 252 246 239 234 232 228 223 218 214 213 213 211 208 208 208 209 209
169 177 181 177 191 209 174 180 217 249 298 309 270 182 108 119 162 246 262 247 226 228 237 243 251 253 254 256 254 252 265 300 320 305 278 273 279 276 265 270 276 280 291 323 339 337 358 360 337 328 325 322 323 324 323 324 329 333 336 339 337 310 281 279 279 286 288 278 269 259 247 237 231 227 224 219 213 211 211 208 205 203 202 200 201 203
192 181 187 208 199 210 232 222 238 285 305 292 259 209 169 199 193 200 256 246 201 215 234 235 243 248 247 253 259 261 341 2 310 282 276 276 276 266 252 258 274 294 330 12 9 2 18 356 331 321 314 316 323 325 326 329 332 335 341 352 3 14 25 37 32 2 342 326 313 289 259 242 231 223 217 212 210 210 210 205 202 202 200 197 195 194
217 206 200 215 208 200 232 244 248 266 273 264 161 152 186 213 188 174 253 261 174 203 225 222 231 241 242 253 265 280 89 288 270 277 302 48 28 307 301 293 309 350 10 9 7 16 12 340 325 318 314 320 327 332 336 336 331 329 342 1 14 32 48 54 43 21 8 0 345 322 290 259 235 221 212 208 208 207 204 201 200 200 197 193 190 187
218 220 214 217 219 200 213 229 227 238 252 195 107 123 188 162 127 137 263 273 186 207 229 224 229 241 246 259 270 117 150 252 261 279 337 67 52 334 330 315 335 12 5 6 13 348 332 327 322 332 343 342 339 341 342 336 327 330 346 2 16 33 44 45 29 12 9 10 8 359 332 283 236 222 215 212 209 204 199 196 194 193 191 186 179 172
205 213 212 211 221 212 207 225 232 240 260 239 111 127 285 118 130 166 250 299 193 228 321 352 285 276 292 302 302 200 215 256 279 296 327 109 236 269 243 279 312 324 318 3 27 335 323 330 334 354 7 356 339 339 340 331 328 343 349 357 22 36 30 18 6 4 8 8 37 71 67 45 230 228 227 223 210 198 193 190 185 181 176 172 167 160
197 202 203 207 218 214 212 229 242 248 255 240 152 123 147 138 151 197 213 359 12 1 8 17 6 358 1 347 332 301 281 313 339 344 333 310 298 290 233 248 257 252 262 296 21 5 342 344 357 14 17 357 341 340 342 334 333 349 352 1 23 24 10 355 345 349 14 46 72 89 93 94 117 183 203 205 196 185 181 177 174 170 164 159 155 152
188 194 202 208 212 215 219 228 245 264 261 239 163 133 162 181 215 235 189 36 18 7 13 22 20 12 1 346 344 337 330 341 355 359 352 342 336 341 339 318 301 287 291 301 37 33 15 351 3 10 6 359 354 349 346 338 342 6 2 6 17 7 351 345 344 4 72 93 92 92 95 105 123 142 151 164 170 164 159 162 163 160 157 152 145 144
177 180 195 204 203 211 221 219 228 255 262 190 157 171 223 201 225 300 354 27 25 16 12 18 21 9 353 345 346 343 344 352 358 359 358 354 351 351 347 339 334 334 340 346 358 8 1 342 351 2 354 352 353 350 344 332 337 56 28 21 21 360 346 354 14 61 97 102 101 100 100 106 119 131 140 150 157 153 149 153 156 155 154 150 142 136
178 177 190 203 192 185 203 211 209 230 1 56 132 149 99 65 32 359 6 27 27 17 8 9 9 1 354 348 341 341 352 357 354 356 358 358 358 355 350 352 352 346 345 349 354 358 352 340 339 345 347 351 351 348 340 322 286 160 131 120 88 45 39 32 15 49 80 90 97 102 105 109 116 125 131 139 148 149 146 148 150 150 151 152 146 138
195 189 191 200 192 193 205 190 111 83 56 43 60 84 86 70 41 39 53 51 31 16 8 360 351 349 350 348 342 347 358 354 352 357 356 354 0 358 349 352 3 359 352 351 353 354 350 340 336 336 341 354 354 348 340 328 308 271 148 130 135 124 110 113 109 88 72 69 81 95 106 111 115 120 126 131 138 138 138 142 143 142 144 147 145 140
191 223 315 199 186 207 209 109 86 84 79 75 79 83 80 65 43 40 50 47 28 13 6 357 346 344 347 348 350 355 354 349 350 354 351 350 359 0 355 355 4 7 4 359 357 355 348 340 337 337 339 346 349 347 342 332 321 312 315 125 136 131 123 127 122 108 93 82 77 80 96 105 109 114 120 126 130 130 130 135 135 134 137 142 141 137
55 20 330 217 181 204 206 81 74 85 87 83 88 84 69 59 44 37 41 38 21 5 358 356 351 346 348 353 353 348 343 345 348 347 346 347 354 359 1 359 358 3 6 5 2 358 349 342 340 338 336 337 341 343 338 331 325 322 322 351 140 143 139 136 128 115 103 96 85 77 83 90 97 106 111 116 122 124 122 123 127 128 128 133 134 129
33 25 20 242 257 198 133 65 64 109 104 79 69 63 48 39 33 32 36 29 13 3 358 354 349 347 352 356 351 341 336 341 346 343 339 340 346 353 356 355 356 359 2 2 2 360 356 348 340 337 333 330 333 336 334 330 329 327 326 328 184 153 149 143 133 122 112 107 106 104 100 97 96 99 100 102 107 111 109 113 122 122 117 127 140 131
322 326 15 13 326 227 118 55 41 127 123 72 51 38 26 25 24 22 25 23 12 4 357 349 345 349 354 353 350 343 336 337 342 340 334 332 337 343 345 345 351 357 0 1 0 358 356 349 341 338 330 323 328 333 331 329 330 330 329 324 298 182 159 147 135 126 120 114 113 115 114 114 112 110 106 101 95 92 92 101 116 121 117 123 136 135
326 318 5 12 315 259 88 35 24 13 217 31 29 19 14 21 19 11 17 18 8 360 354 346 341 348 356 356 353 348 340 336 337 335 329 328 332 336 338 339 343 351 358 356 350 348 348 345 341 337 327 323 330 334 330 328 329 329 325 316 298 255 185 154 134 122 119 116 114 117 118 117 118 119 117 112 104 95 90 90 98 108 112 119 128 134
12 18 13 348 288 40 55 32 12 347 290 331 359 358 2 19 16 9 14 11 1 358 352 341 337 346 354 354 354 353 346 337 334 332 329 327 329 332 335 336 337 341 349 350 347 344 339 336 334 329 324 328 335 335 332 329 326 324 321 307 289 270 228 180 144 123 119 113 115 122 120 117 119 121 120 119 116 111 102 94 89 90 96 106 115 120